Location: Anumalkud?ru
(16.4847°N, 80.6636°E)
Time: 22:50:11
(UTC+00:00)

Okean 1-7 - Pass Details

Date: 11 April 2026
Orbit: 564 x 588 km, 82.5° (Epoch: 9 May)

Event Time Altitude Azimuth Distance (km) Brightness Sun altitude
Rises 13:40:52 0° 14° (NNE) 2,748 6.4 -12.3°
Reaches altitude 10° 13:43:20 10° 27° (NNE) 1,852 5.4 -12.9°
Maximum altitude 13:46:42 25° 83° (E) 1,167 3.9 -13.7°
Enters shadow 13:47:34 23° 104° (ESE) 1,226 3.9 -13.9°
